TimeEDT,TemperatureF,Dew PointF,Humidity,Sea Level PressureIn,VisibilityMPH,Wind Direction,Wind SpeedMPH,Gust SpeedMPH,PrecipitationIn,Events,Conditions,WindDirDegrees,DateUTC
12:55 AM,30.0,17.1,59,30.11,10.0,WNW,9.2,-,N/A,,Overcast,300,2013-03-17 04:55:00
1:55 AM,30.0,18.0,61,30.12,10.0,WNW,12.7,-,N/A,,Overcast,300,2013-03-17 05:55:00
2:55 AM,28.9,16.0,58,30.13,10.0,NW,11.5,-,N/A,,Overcast,320,2013-03-17 06:55:00
3:55 AM,28.9,16.0,58,30.14,10.0,NNW,10.4,-,N/A,,Overcast,340,2013-03-17 07:55:00
4:55 AM,28.9,15.1,56,30.14,10.0,North,9.2,-,N/A,,Overcast,350,2013-03-17 08:55:00
5:55 AM,27.0,14.0,58,30.17,10.0,North,13.8,-,N/A,,Overcast,360,2013-03-17 09:55:00
6:55 AM,25.0,10.9,55,30.19,10.0,NNE,11.5,-,N/A,,Clear,20,2013-03-17 10:55:00
7:55 AM,24.1,10.0,55,30.23,10.0,NE,6.9,-,N/A,,Clear,40,2013-03-17 11:55:00
8:55 AM,25.0,10.0,53,30.26,10.0,NE,8.1,17.3,N/A,,Clear,50,2013-03-17 12:55:00
9:55 AM,25.0,9.0,51,30.28,10.0,NE,9.2,-,N/A,,Scattered Clouds,40,2013-03-17 13:55:00
10:55 AM,26.1,7.0,44,30.29,10.0,East,9.2,-,N/A,,Partly Cloudy,90,2013-03-17 14:55:00
11:55 AM,28.0,9.0,45,30.30,10.0,East,8.1,-,N/A,,Partly Cloudy,80,2013-03-17 15:55:00
12:55 PM,30.0,10.9,45,30.29,10.0,ESE,10.4,-,N/A,,Partly Cloudy,120,2013-03-17 16:55:00
1:55 PM,30.9,12.0,46,30.28,10.0,NE,6.9,-,N/A,,Partly Cloudy,50,2013-03-17 17:55:00
2:55 PM,32.0,12.0,44,30.26,10.0,Variable,6.9,19.6,N/A,,Partly Cloudy,0,2013-03-17 18:55:00
3:55 PM,34.0,12.9,42,30.22,10.0,NE,10.4,-,N/A,,Clear,50,2013-03-17 19:55:00
4:55 PM,35.1,12.9,40,30.20,10.0,ENE,12.7,-,N/A,,Clear,70,2013-03-17 20:55:00
5:55 PM,33.1,12.0,42,30.21,10.0,ENE,10.4,-,N/A,,Partly Cloudy,70,2013-03-17 21:55:00
6:55 PM,30.9,10.9,43,30.22,10.0,East,10.4,-,N/A,,Partly Cloudy,80,2013-03-17 22:55:00
7:55 PM,28.0,10.9,49,30.21,10.0,East,10.4,-,N/A,,Partly Cloudy,80,2013-03-17 23:55:00
8:55 PM,27.0,10.0,49,30.21,10.0,East,9.2,-,N/A,,Partly Cloudy,90,2013-03-18 00:55:00
9:55 PM,26.1,10.9,53,30.20,10.0,East,10.4,-,N/A,,Clear,90,2013-03-18 01:55:00
10:55 PM,26.1,12.0,55,30.17,10.0,East,10.4,-,N/A,,Clear,100,2013-03-18 02:55:00
11:55 PM,25.0,14.0,63,30.15,10.0,East,12.7,20.7,N/A,,Clear,90,2013-03-18 03:55:00